Location: Alfortville
(48.8058°N, 2.4204°E)
Time: 04:30:24
(UTC+00:00)

Cosmos 1980 Rocket - Pass Details

Date: 26 May 2022
Orbit: 827 x 851 km, 71.0° (Epoch: 05 July)

Event Time Altitude Azimuth Distance (km) Brightness Sun altitude
Rises 00:09:49 0° 287° (WNW) 3,398 5.5 -19.9°
Reaches altitude 10° 00:15:07 10° 329° (NNW) 2,475 5.3 -19.8°
Maximum altitude 00:15:56 10° 337° (NNW) 2,456 5.5 -19.8°
Drops below altitude 10° 00:16:45 10° 345° (NNW) 2,478 5.6 -19.8°
Sets 00:22:06 0° 27° (NNE) 3,423 6.7 -19.7°
